This is the latest recevied weather packets stored in our database for station/object K0SDS. If no packets are shown the sender has not sent any weather packets the latest 10 day(s).
| Time | Temp. | Humidity | Pressure | Rain* | Wind** | Luminosity | Snow |
|---|---|---|---|---|---|---|---|
| 1777468675 | 8.33° C | 89% | 1021.3 hPa | 0 mm | - | 129 W/m² | - |
| 1777468372 | 7.78° C | 89% | 1021.2 hPa | 0 mm | - | 78 W/m² | - |
| 1777468068 | 8.33° C | 89% | 1021 hPa | 0 mm | - | 59 W/m² | - |
| 1777467764 | 8.33° C | 90% | 1021.3 hPa | 0 mm | - | 78 W/m² | - |
| 1777467459 | 8.33° C | 90% | 1021.2 hPa | 0 mm | - | 84 W/m² | - |
| 1777467154 | 8.33° C | 90% | 1020.9 hPa | 0 mm | - | 84 W/m² | - |
| 1777466852 | 8.33° C | 91% | 1021.1 hPa | 0 mm | - | 74 W/m² | - |
| 1777466550 | 7.78° C | 92% | 1021.1 hPa | 0 mm | - | 82 W/m² | - |
| 1777466246 | 7.22° C | 92% | 1020.9 hPa | 0 mm | - | 72 W/m² | - |
| 1777465942 | 7.22° C | 92% | 1021 hPa | 0 mm | - | 54 W/m² | - |
| 1777465639 | 7.22° C | 92% | 1020.9 hPa | 0 mm | - | 51 W/m² | - |
| 1777465335 | 6.67° C | 92% | 1020.8 hPa | 0 mm | - | 42 W/m² | - |
| 1777465033 | 6.67° C | 92% | 1021.1 hPa | 0 mm | - | 41 W/m² | - |
| 1777464728 | 6.67° C | 92% | 1020.8 hPa | 0 mm | - | 39 W/m² | - |
| 1777464425 | 6.67° C | 92% | 1020.6 hPa | 0 mm | - | 35 W/m² | - |
| 1777464121 | 6.67° C | 93% | 1020.6 hPa | 0 mm | - | 26 W/m² | - |
| 1777463821 | 6.67° C | 93% | 1020.5 hPa | 0 mm | - | 19 W/m² | - |
| 1777463515 | 6.67° C | 93% | 1020.5 hPa | 0 mm | - | 14 W/m² | - |
| 1777463211 | 6.67° C | 93% | 1020 hPa | 0 mm | - | 12 W/m² | - |
| 1777462907 | 6.67° C | 93% | 1020.3 hPa | 0 mm | - | 9 W/m² | - |
| 1777462604 | 6.67° C | 92% | 1020.1 hPa | 0 mm | - | 6 W/m² | - |
| 1777462300 | 6.67° C | 92% | 1020.3 hPa | 0 mm | - | 3 W/m² | - |
| 1777461996 | 6.67° C | 92% | 1019.9 hPa | 0 mm | - | 1 W/m² | - |
| 1777461693 | 6.67° C | 92% | 1019.8 hPa | 0 mm | - | 0 W/m² | - |
| 1777461393 | 6.67° C | 92% | 1020 hPa | 0 mm | - | 0 W/m² | - |
* Rain latest hour (hover to see other rain measurements)
** Current wind speed in m/s (hover to see current wind gust speed)